This demonstration page uses our WeatherBlox Daily Observations layout. Learn more.

41.55636, -103.73856

Hourly Observations for December 30, 2015

Temp ( °F °C ) Dew Point ( °F °C ) Humidity (%) Winds ( mph kmh ) Pressure ( in mb ) Visibility ( mi km ) Precip ( " mm )
12:53 am 00:53 Mostly Clear 3 -16.1 -2 -18.9 79 79 NNE 3 6 30.24 1024 10 16.0934 0 0
1:53 am 01:53 Cloudy 0 -17.8 -4 -20 83 83 NE 6 9 30.25 1024 10 16.0934 0 0
2:53 am 02:53 Cloudy 1 -17.2 -3 -19.4 83 83 NW 3 6 30.26 1025 10 16.0934 0 0
3:53 am 03:53 Clear 0 -17.8 -4 -20 83 83 NW 6 9 30.26 1025 10 16.0934 0 0
4:53 am 04:53 Clear -1 -18.3 -5 -20.6 82 82 NW 7 11 30.28 1025 9 14.48406 0 0
5:53 am 05:53 Clear -1 -18.3 -5 -20.6 82 82 NNW 8 13 30.29 1026 10 16.0934 0 0
6:53 am 06:53 Clear -1 -18.3 -5 -20.6 82 82 NNW 8 13 30.31 1026 9 14.48406 0 0
7:53 am 07:53 Sunny -3 -19.4 -7 -21.7 82 82 NW 7 11 30.33 1027 7 11.26538 0 0
8:53 am 08:53 Sunny 1 -17.2 -3 -19.4 83 83 W 3 6 30.35 1028 8 12.87472 0 0
9:53 am 09:53 Sunny 5 -15 3 -16.1 91 91 Calm 30.35 1028 8 12.87472 0 0
10:53 am 10:53 Sunny 10 -12.2 3 -16.1 73 73 NW 7 11 30.35 1028 10 16.0934 0 0
11:53 am 11:53 Sunny 13 -10.6 6 -14.4 74 74 WNW 9 15 30.31 1027 10 16.0934 0 0
12:53 pm 12:53 Sunny 15 -9.4 7 -13.9 70 70 W 8 13 30.29 1026 10 16.0934 0 0
1:53 pm 13:53 Sunny 18 -7.8 8 -13.3 65 65 W 7 11 30.29 1026 10 16.0934 0 0
2:53 pm 14:53 Sunny 18 -7.8 9 -12.8 68 68 Calm 30.3 1026 10 16.0934 0 0
3:53 pm 15:53 Sunny 15 -9.4 8 -13.3 74 74 WSW 5 7 30.32 1027 10 16.0934 0 0
4:53 pm 16:53 Clear 14 -10 7 -13.9 73 73 Calm 30.35 1028 10 16.0934 0 0
5:53 pm 17:53 Clear 10 -12.2 5 -15 80 80 NNW 5 7 30.38 1029 10 16.0934 0 0
6:53 pm 18:53 Clear 4 -15.6 1 -17.2 88 88 N 8 13 30.42 1030 8 12.87472 0 0
7:53 pm 19:53 Clear 11 -11.7 6 -14.4 81 81 NW 3 6 30.42 1030 10 16.0934 0 0
8:53 pm 20:53 Clear 6 -14.4 4 -15.6 91 91 NW 5 7 30.43 1031 8 12.87472 0 0
9:53 pm 21:53 Clear 4 -15.6 0 -17.8 83 83 WNW 7 11 30.43 1031 9 14.48406 0 0
10:53 pm 22:53 Clear 2 -16.7 -2 -18.9 83 83 NNW 9 15 30.43 1031 8 12.87472 0 0
11:53 pm 23:53 Clear 5 -15 1 -17.2 83 83 NW 6 9 30.42 1030 9 14.48406 0 0

Powered by AerisWeather